Regional Weather Roundup
Issued by NWS

Home | Current Version | Previous Version | Text Only | Print | Product List | Glossary On
Versions: 1 2 3 4 5 6 7 8 9 10 11 12 13 14 15 16 17 18 19 20 21 22 23 24 25 26 27 28 29 30 31 32 33 34 35 36 37 38 39 40 41 42 43 44 45 46 47 48 49 50
000
ASUS42 KFFC 301310
RWRGA
WEATHER ROUNDUP FOR GEORGIA
NATIONAL WEATHER SERVICE PEACHTREE CITY GA
900 AM EDT THU MAR 30 2017

NOTE: "FAIR" INDICATES FEW OR NO CLOUDS BELOW 12,000 FEET WITH NO
SIGNIFICANT WEATHER AND/OR OBSTRUCTIONS TO VISIBILITY.

* = USE WITH CAUTION. THE STATIONS MARKED WITH AN ASTERISK MAY NOT
REPORT WEATHER SUCH AS PRECIPITATION, FOG, OR THUNDER AND ARE NOT
QUALITY CONTROLLED BY NWS.

THE REMARK "TC" DENOTES TEMPERATURE READING IN DEGREES CELSIUS.

GAZ001>058-301400-
NORTH GEORGIA

CITY           SKY/WX    TMP DP  RH WIND       PRES   REMARKS
ATLANTA        CLOUDY    65  58  78 CALM      30.01R
ATHENS         CLOUDY    64  59  83 E3        30.02R
CHAMBLEE       CLOUDY    64  57  78 E3        30.01R
PEACHTREE CITY CLOUDY    60  59  96 CALM      30.01R FOG
ROME           CLOUDY    63  58  83 CALM      29.98R
WEST ATLANTA   PTSUNNY   63  58  83 CALM      30.00R
GAINESVILLE    CLOUDY    60  54  80 E10       30.04R
CARTERSVILLE   CLOUDY    63  58  83 CALM      30.00R


CITY           SKY/WX    TMP DP  RH WIND       PRES   REMARKS
DALTON*        CLOUDY    64  59  82 S3        29.98R
LAWRENCEVILLE* MOSUNNY   61  55  82 E5        30.03R
MARIETTA       CLOUDY    64  57  77 S3        30.00R
KENNESAW*      PTSUNNY   64  55  72 CALM      30.00R
CANTON*        CLOUDY    63  50  63 E5        30.03R
$$

GAZ059>098-102>109-301400-
CENTRAL GEORGIA

CITY           SKY/WX    TMP DP  RH WIND       PRES   REMARKS
AUGUSTA-BUSH   PTSUNNY   69  65  86 SE3       30.02S FOG
AUGUSTA-DANIEL CLOUDY    67  62  84 SE8       30.04R
COLUMBUS       SUNNY     63  55  75 CALM      30.00R HAZE
MACON          SUNNY     63  60  90 SE6       30.00S
ROBINS AFB     SUNNY     62  60  93 CALM      30.00R


CITY           SKY/WX    TMP DP  RH WIND       PRES   REMARKS
LAGRANGE*      SUNNY     61  61 100 CALM      30.01R
SYLVANIA*      CLOUDY   N/A N/A N/A SE6       30.04S
MILLEDGEVILLE* PTSUNNY   64  63  94 CALM      30.02S
$$

GAZ099>101-110>166-301400-
SOUTH GEORGIA

CITY           SKY/WX    TMP DP  RH WIND       PRES   REMARKS
SAVANNAH       PTSUNNY   70  66  87 E7        30.03R
VALDOSTA       SUNNY     65  60  84 CALM      30.00R
ALMA           PTSUNNY   67  64  90 CALM      30.00S
ST SIMONS      CLOUDY    71  65  81 SE7       30.01R
FT STEWART     CLOUDY    66  65  94 E5        30.00R
ALBANY         MOSUNNY   64  59  83 CALM      30.01S
HUNTER AFB     SUNNY     69  68  99 CALM      30.01R
MOODY AFB      SUNNY     66  55  67 CALM      29.99R
BRUNSWICK      PTSUNNY   72  68  88 SE5       30.01S


CITY           SKY/WX    TMP DP  RH WIND       PRES   REMARKS
BAINBRIDGE*    SUNNY     63  57  82 CALM      30.00R
MOULTRIE*      MOSUNNY   64  59  82 SE3       30.01R
VIDALIA*       PTSUNNY   66  63  88 CALM      30.02S
WAYCROSS*      CLOUDY    69  69 100 CALM      30.00S
DOUGLAS*       PTSUNNY   66  59  77 CALM      30.02S
$$



USA.gov is the U.S. government's official web portal to all federal, state and local government web resources and services.